Dallas Love, TX

6:55 AM CDT on April 24, 2018 (GMT -0500)
Dallas Love

Weather History for KDAL - November, 2012

Change the Weather History Date:

Thursday, November 1, 2012

  Actual Average Record
Temperature  
Mean Temperature 69 °F -  
Max Temperature 87 °F 69 °F 87 °F (2012)
Min Temperature 52 °F 52 °F 41 °F (2014)
Cooling Degree Days 4    
Growing Degree Days 19 (Base 50)    
Moisture  
Dew Point 49 °F    
Average Humidity 55    
Maximum Humidity 83    
Minimum Humidity 24    
Precipitation  
Precipitation 0.00 in - - ()
Sea Level Pressure  
Sea Level Pressure 29.97 in    
Wind  
Wind Speed 1 mph (South)    
Max Wind Speed 8 mph    
Max Gust Speed -    
Visibility 10 miles    
Events      
Averages and records for this station are not official NWS values.
T = Trace of Precipitation, MM = Missing Value Source: NWS Daily Summary

Daily Weather History Graph

Daily Weather History Graph

Search for Another Location

Airport or City:

Astronomy

Nov. 01, 2012 Rise Set
Actual Time 7:45 AM CDT 6:35 PM CDT
Civil Twilight 7:20 AM CDT 7:01 PM CDT
Nautical Twilight 6:50 AM CDT 7:30 PM CDT
Astronomical Twilight 6:22 AM CDT 7:59 PM CDT
Moon 8:40 PM CDT (11/1) 10:12 AM CDT (11/1)
Length of Visible Light 11h 41m
Length of Day
10h 50m
Waning Gibbous, 93% of the Moon is Illuminated
Nov 1
Waning Gibbous
Nov 6
Last Quarter
Nov 13
New
Nov 20
First Quarter
Nov 28
Full

Hourly Weather History & Observations

Time (CDT) Temp. Dew Point Humidity Pressure Visibility Wind Dir Wind Speed Gust Speed Precip Events Conditions
12:53 AM 59.0 °F 51.1 °F 75% 30.00 in 10.0 mi Calm Calm - N/A   Clear
1:53 AM 55.9 °F 50.0 °F 80% 30.00 in 10.0 mi Calm Calm - N/A   Clear
2:53 AM 55.0 °F 48.9 °F 80% 29.99 in 10.0 mi Calm Calm - N/A   Clear
3:53 AM 54.0 °F 48.0 °F 80% 29.98 in 10.0 mi Calm Calm - N/A   Clear
4:53 AM 53.1 °F 46.9 °F 80% 29.99 in 10.0 mi Calm Calm - N/A   Clear
5:53 AM 53.1 °F 46.9 °F 80% 29.99 in 10.0 mi Calm Calm - N/A   Clear
6:53 AM 52.0 °F 46.9 °F 83% 30.00 in 10.0 mi Calm Calm - N/A   Clear
7:53 AM 52.0 °F 46.9 °F 83% 30.01 in 10.0 mi Calm Calm - N/A   Clear
8:53 AM 57.9 °F 50.0 °F 75% 30.03 in 10.0 mi Calm Calm - N/A   Clear
9:53 AM 66.0 °F 52.0 °F 60% 30.04 in 7.0 mi Calm Calm - N/A   Clear
10:53 AM 71.1 °F 50.0 °F 47% 30.04 in 10.0 mi Calm Calm - N/A   Clear
11:53 AM 75.0 °F 50.0 °F 41% 30.04 in 10.0 mi Calm Calm - N/A   Clear
12:53 PM 78.1 °F 48.9 °F 36% 30.01 in 10.0 mi West 6.9 mph - N/A   Clear
1:53 PM 82.0 °F 52.0 °F 35% 29.97 in 10.0 mi Calm Calm - N/A   Clear
2:53 PM 84.9 °F 51.1 °F 31% 29.94 in 10.0 mi Calm Calm - N/A   Clear
3:53 PM 86.0 °F 48.9 °F 28% 29.92 in 10.0 mi Calm Calm - N/A   Clear
4:53 PM 86.0 °F 50.0 °F 29% 29.91 in 10.0 mi SSE 3.5 mph - N/A   Clear
5:53 PM 86.0 °F 45.0 °F 24% 29.90 in 10.0 mi SW 3.5 mph - N/A   Clear
6:53 PM 80.1 °F 44.1 °F 28% 29.91 in 10.0 mi SSE 3.5 mph - N/A   Clear
7:53 PM 73.9 °F 51.1 °F 45% 29.92 in 10.0 mi ESE 5.8 mph - N/A   Clear
8:53 PM 70.0 °F 54.0 °F 57% 29.93 in 10.0 mi SE 8.1 mph - N/A   Clear
9:53 PM 71.1 °F 50.0 °F 47% 29.93 in 10.0 mi South 8.1 mph - N/A   Clear
10:53 PM 73.0 °F 50.0 °F 44% 29.94 in 10.0 mi SSW 5.8 mph - N/A   Clear
11:53 PM 72.0 °F 53.1 °F 51% 29.93 in 10.0 mi SSW 8.1 mph - N/A   Clear